Regional Weather Roundup
Issued by NWS Cleveland, OH

Home | Current Version | Previous Version | Graphics & Text | Print | Product List | Glossary Off
Versions: 1 2 3 4 5 6 7 8 9 10 11 12 13 14 15 16 17 18 19 20 21 22 23 24 25 26 27 28 29 30 31 32 33 34 35 36 37 38 39 40 41 42 43 44 45 46 47 48 49 50

000
ASUS41 KCLE 052110
RWRCLE
OHIO REGIONAL WEATHER ROUNDUP
NATIONAL WEATHER SERVICE WILMINGTON, OH
500 PM EDT TUE MAY 05 2015

NOTE: "FAIR" INDICATES FEW OR NO CLOUDS BELOW 12,000 FEET WITH NO
SIGNIFICANT WEATHER AND/OR OBSTRUCTIONS TO VISIBILITY.

OHZ001>008-015>018-024>027-034-035-043-044-052200-
   NORTHWEST OHIO

CITY           SKY/WX    TMP DP  RH WIND       PRES   REMARKS
DEFIANCE       PTSUNNY   63  57  81 NE14      30.21F
FINDLAY        PTSUNNY   71  61  70 NE14      30.20F
TOLEDO EXPRESS CLOUDY    58  51  78 NE12      30.24F
TOLEDO EXEC    CLOUDY    54  48  80 NE9       30.26F
LIMA           PTSUNNY   78  58  49 W9        30.19F
$$

OHZ009>014-019>023-028>033-038-089-052200-
   NORTHEAST OHIO

CITY           SKY/WX    TMP DP  RH WIND       PRES   REMARKS
CLE-HOPKINS    CLOUDY    53  48  83 N5        30.28F HAZE
CLE-LAKEFRONT  CLOUDY    51  49  92 N6        30.25F FOG
CUY CO. ARPT   FOG       52  52 100 CALM      30.27R VSB 1/4
LORAIN-ELYRIA  CLOUDY    55  48  77 NE12      30.26F
ASHTABULA      CLOUDY    63  60  90 NW10      30.25S FOG
AKRON-CANTON   PTSUNNY   75  58  55 NW8       30.22F
WOOSTER        PTSUNNY   74  59  59 NW8       30.21F
MANSFIELD      CLOUDY    73  61  65 NW13      30.22F THUNDER
YOUNGSTOWN     CLOUDY    71  58  63 W8        30.23F
$$

OHZ042-051>053-060>062-070>072-077>081-052200-
  SOUTHWEST OHIO

CITY           SKY/WX    TMP DP  RH WIND       PRES   REMARKS
CINC-COVINGTON MOSUNNY   81  53  37 W6        30.20F
CINC-LUNKEN    PTSUNNY   81  54  39 S10       30.19F
HAMILTON       PTSUNNY   83  53  35 W7        30.20F
DAYTON         PTSUNNY   81  51  35 SW3       30.20F
WRIGHT-PAT AFB MOSUNNY   82  54  38 SW10      30.19F
DAYTON GENERAL MOSUNNY   80  50  34 SW6       30.19F
WILMINGTON     MOSUNNY   80  53  39 SW14      30.20F
$$

OHZ036-037-039>041-045>050-054>059-063>069-073>076-082>088-052200-
  CENTRAL AND SOUTHEAST OHIO

CITY           SKY/WX    TMP DP  RH WIND       PRES   REMARKS
COLUMBUS       PTSUNNY   80  56  43 VRB3      30.18F
OSU AIRPORT    MOSUNNY   80  55  42 W9        30.19F
BOLTON FIELD   CLOUDY    81  57  44 SW12      30.20F
RICKENBACK AFB PTSUNNY   81  56  41 SW13      30.18F
NEWARK         MOSUNNY   80  59  48 W9        30.19F
MARION         PTSUNNY   77  58  51 W8        30.20F
LANCASTER      MOSUNNY   80  55  42 SW8       30.20F
ZANESVILLE     MOSUNNY   80  56  43 W7        30.20F
NEW PHILLY     RAIN      74  62  66 S6        30.22F
$$



USA.gov is the U.S. government's official web portal to all federal, state and local government web resources and services.